Regional Weather Roundup
Issued by NWS

Home | Current Version | Previous Version | Graphics & Text | Print | Product List | Glossary On
Versions: 1 2 3 4 5 6 7 8 9 10 11 12 13 14 15 16 17 18 19 20 21 22 23 24 25 26 27 28 29 30 31 32 33 34 35 36 37 38 39 40 41 42 43 44 45 46 47 48 49 50
000
ASUS43 KLMK 220910
RWRKY
KENTUCKY REGIONAL WEATHER ROUNDUP
NATIONAL WEATHER SERVICE LOUISVILLE KY
500 AM EDT MON MAY 22 2017

NOTE "FAIR" INDICATES FEW OR NO CLOUDS BELOW 12,000 FEET
WITH NO SIGNIFICANT WEATHER AND/OR OBSTRUCTIONS TO VISIBILITY.

KYZ001>023-026-027-061>063-070>075-221000-
WESTERN AND SOUTH CENTRAL KENTUCKY

CITY           SKY/WX    TMP DP  RH WIND       PRES   REMARKS
PADUCAH        CLEAR     53  49  86 CALM      30.12F
HENDERSON      CLEAR     53  50  89 CALM      30.14S
OWENSBORO      CLOUDY    57  50  77 CALM      30.14F
HOPKINSVILLE   PTCLDY    57  53  86 N8        30.12S
BOWLING GREEN  CLEAR     60  54  80 NE5       30.14R
GLASGOW        MOCLDY    57  53  85 N7        30.13S
$$

KYZ024-025-028>034-038-045-046-053-221000-
NORTH CENTRAL KENTUCKY

CITY           SKY/WX    TMP DP  RH WIND       PRES   REMARKS
LOUISVILLE/SDF PTCLDY    57  45  64 N7        30.13R
LOUISVILLE/LOU CLEAR     57  49  74 CALM      30.14R
FORT KNOX      CLEAR     53  48  83 CALM      30.12R
$$

KYZ035>037-039>044-047>052-055>060-089>105-221000-
NORTHEAST KENTUCKY

CITY           SKY/WX    TMP DP  RH WIND       PRES   REMARKS
LEXINGTON      CLOUDY    56  50  80 N12       30.13R
COVINGTON      CLOUDY    53  43  68 NW7       30.12R
FRANKFORT      PTCLDY    56  48  74 NW6       30.12R
$$

KYZ054-064>069-076>088-106>120-221000-
SOUTHEAST KENTUCKY

CITY           SKY/WX    TMP DP  RH WIND       PRES   REMARKS
JACKSON        CLOUDY    63  61  93 NW5       30.08R
LONDON         CLOUDY    62  56  80 NW8       30.10R
SOMERSET       CLOUDY    59  55  88 N6        30.13R
MIDDLESBORO    CLOUDY    65  65 100 CALM      30.08S
MONTICELLO     NOT AVBL
$$





USA.gov is the U.S. government's official web portal to all federal, state and local government web resources and services.